SCP
0 0 0 0 0 0 0 1 1 0 0 0 0 0 0 0 0 0 0 0 0 0 0 0 0 0 0 0 0 0 0 0 0 0 0 0 0 0
0 0 0 0 0 0 0 0 0 0 0 0 0 0 0 0 0 0 0 0 0 0 0 0 0 0 0 0 0 0 0 0 0 0 0 0 0 0
0 0 0 0 0 0 0 0 0 0 0 0 0 0 0 0 0 0 0 0 0 0 0 0 0 0 0 0 0 0 0 0 0 0 0 0 0 0
0 0 0 0 0 0 0 0 0 0 0 0 0 0 0 0 0 0 0 0 0 0 0 0 0 0 0 0 0 0 0 0 0 0 0 0 0 0
0 0 0 0 0 0 0 0 0 0 0 0 0 0 0 0 0 0 0 0 0 0 0 0 0 0 0 0 0 0 0 0 0 0 0 0 0 0
0 0 0 0 0 0 0 0 0 0 0 0 0 0 0 0 0 0 0 0 0 0 0 0 0 0 0 0 0 0 0 0 0 0 0 0 0 0
0 0 0 0 0 0 0 0 0 0 0 0 0 0 0 0 0 0 0 0 0 0 0 0 0 0 0 0 0 0 0 0 0 0 0 0 0 0
0 0 0 0 0 0 0 0 0 0 0 0 0 0 0 0 0 0 0 0 0 0 0 0 0 0 0 0 0 0 0 0 0 0 0 0 0 0
0 0 0 0 0 0 0 0 0 0 0 0 0 0 0 0 0 0 0 0 0 0 0 0 0 0 0 0 0 0 0 0 0 0 0 0 0 0
0 0 0 0 0 0 0 0 0 0 0 0 0 0 0 0 0 0 0 0 0 0 0 0 0 0 0 0 0 0 0 0 0 0 0 0 0 0
0 0 0 0 0 0 0 0 0 0 0 0 0 0 0 0 0 0 0 0 0 0 0 0 0 0 0 0 0 0 0 0 0 0 0 0 0 0
0 0 0 0 0 0 0 0 0 0 0 0 0 0 0 0 0 0 0 0 0 0 0 0 0 0 0 0 0 0 0 0 0 0 0 0 0 0
0 0 0 0 0 0 0 0 0 0 0 0 0 0 0 0 0 0 0 0 0 0 0 0 0 0 0 0 0 0 0 0 0 0 0 0 0 0
0 0 0 0 0 0 0 0 0 0 0 0 0 0 0 0 0 0 0 0 0 0 0 0 0 0 0 0 0 0 0 0 0 0 0 0 0 0
0 0 0 0 0 0 0 0 0 0 0 0 0 0 0 0 0 0 0 0 0 0 0 0 0 0 0 0 0 0 0 0 0 0 0 0 0 0
0 0 0 0 0 0 0 0 0 0 0 0 0 0 0 0 0 0 0 0 0 0 0 0 0 0 0 0 0 0 0 0 0 0 0 0 0 0
0 0 0 0 0 0 0 0 0 0 0 0 0 0 0 0 0 0 0 0 0 0 0 0 0 0 0 0 0 0 0 0 0 0 0 0 0 0
0 0 0 0 0 0 0 0 0 0 0 0 0 0 0 0 0 0 0 0 0 0 0 0 0 0 0 0 0 0 0 0 0 0 0 0 0 0
0 0 0 0 0 0 0 0 0 0 0 0 0 0 0 0 0 0 0 0 0 0 0 0 0 0 0 0 0 0 0 0 0 0 0 0 0 0
0 0 0 0 0 0 0 0 0 0 0 0 0 0 0 0 0 0 0 0 0 0 0 0 0 0 0 0 0 0 0 0 0 0 0 0 0 0
0 0 0 0 0 0 0 0 0 0 0 0 0 0 0 0 0 0 0 0 0 0 0 0 0 0 0 0 0 0 0 0 0 0 0 0 0 0
0 0 0 0 0 0 0 0 0 0 0 0 0 0 0 0 0 0 0 0 0 0 0 0 0 0 0 0 0 0 0 0 0 0 0 0 0 0
0 0 0 0 0 0 0 0 0 0 0 0 0 0 0 0 0 0 0 0 0 0 0 0 0 0 0 0 0 0 0 0 0 0 0 0 0 0
Wind_Speed
5 5 4 3 3 3 2 2 1 2 2 2 2 3 1 2 3 1 3 7 7 5 3 3 3 4 5 6 6 7 8 8 9 9 9 10 10 10
5 6 5 4 3 3 2 2 2 1 2 2 2 3 2 1 3 1 2 8 8 6 5 3 2 2 3 4 5 6 6 7 8 9 9 9 10 10
6 6 6 6 4 4 3 4 4 3 3 3 2 3 2 1 1 1 2 3 5 8 7 5 4 2 1 2 3 4 5 6 7 8 8 9 9 10
6 6 6 6 6 5 4 4 3 2 3 3 2 2 1 1 1 2 2 2 4 9 9 8 6 5 3 1 0 1 3 4 5 6 7 8 8 9
6 6 6 6 6 5 5 4 3 3 2 2 2 1 1 0 0 2 1 0 1 7 9 9 8 7 6 4 2 2 2 3 4 5 6 7 7 8
6 6 7 7 6 6 5 6 4 3 2 1 1 1 1 1 1 2 1 1 1 2 3 6 9 9 8 6 5 4 2 2 2 3 4 5 6 7
5 5 5 6 7 6 5 5 5 4 3 2 2 2 2 2 2 2 2 1 1 1 1 1 4 4 5 6 7 6 4 3 2 3 4 4 5 6
3 3 4 3 3 3 4 4 4 4 4 3 3 3 3 3 3 3 2 2 1 1 1 1 2 3 4 4 7 7 6 5 3 3 4 5 5 6
3 2 4 6 5 4 2 1 1 1 1 1 3 3 2 3 3 4 3 2 2 2 1 1 1 1 2 4 10 9 8 6 4 4 5 6 6 7
4 5 5 6 7 7 5 3 1 0 1 1 1 2 2 2 3 3 4 4 2 1 0 1 0 1 1 3 9 9 8 7 6 5 5 6 8 8
5 6 5 5 7 9 5 4 4 3 1 2 3 4 5 6 3 3 4 3 2 1 1 1 1 1 1 2 4 9 9 8 8 7 7 7 8 8
4 5 8 6 6 8 5 5 5 5 6 4 4 6 6 6 6 4 3 3 2 2 2 1 1 1 1 1 1 3 5 8 10 9 9 8 7 4
3 3 3 4 5 6 4 2 3 4 6 5 3 2 2 1 2 3 3 1 1 2 2 1 1 2 1 1 2 2 3 3 3 5 8 9 7 4
3 3 2 3 5 6 5 5 8 7 4 2 2 2 1 1 1 1 2 2 3 3 3 1 1 1 1 2 2 2 2 2 2 3 3 5 7 7
3 3 2 3 5 5 5 7 7 4 2 3 2 2 1 2 2 1 1 2 3 3 3 3 3 2 1 2 2 2 2 2 1 1 2 3 4 3
3 3 4 5 5 5 4 3 2 1 2 2 2 2 2 2 2 1 1 2 2 2 2 2 3 2 2 3 2 2 2 1 1 1 1 2 3 3
6 3 3 2 2 1 1 1 1 1 2 3 2 2 2 2 2 2 1 2 2 2 2 2 2 2 3 2 1 1 2 2 2 2 2 2 2 3
5 3 2 2 2 2 2 2 2 2 2 3 3 2 2 2 2 2 2 2 2 2 2 2 2 2 2 2 1 1 1 1 2 2 2 2 2 2
3 2 1 2 2 2 2 2 2 2 2 2 2 2 2 3 3 3 2 2 3 3 3 2 1 1 2 2 3 4 2 2 2 2 2 2 2 2
2 1 2 2 2 2 2 2 3 3 2 3 3 3 3 3 3 3 2 2 3 3 3 2 1 1 1 2 3 3 7 4 2 2 3 2 1 1
1 2 2 2 2 2 2 2 2 2 2 2 3 3 3 3 3 3 3 4 3 3 3 3 2 3 3 2 3 2 3 8 6 3 2 2 2 1
2 2 2 1 1 2 2 2 2 2 3 3 3 3 3 3 4 4 3 3 3 3 3 3 3 2 2 2 3 3 2 2 6 8 7 6 3 2
2 3 3 1 1 2 3 4 4 3 4 4 4 4 4 4 4 3 3 3 3 3 4 4 4 3 3 3 2 2 3 3 1 2 4 11 15 14
Wind_Direction
51 49 53 49 42 38 45 68 123 155 148 149 117 102 97 122 149 169 158 172 162 156 133 97 63 46 38 31 28 24 17 11 6 1 358 354 351 350
52 46 42 36 37 40 41 31 32 73 111 113 109 111 96 124 167 200 198 176 174 171 168 153 120 72 47 35 28 23 16 11 7 4 1 358 356 354
56 54 47 36 27 26 31 34 36 52 89 90 102 125 141 168 162 265 236 176 169 181 184 178 166 147 112 43 25 22 16 11 5 2 359 356 354 351
57 51 45 43 33 26 25 37 40 56 87 95 108 127 158 175 216 261 258 145 170 185 192 190 186 183 180 182 350 1 353 352 355 355 353 353 351 349
60 58 49 42 34 24 24 21 26 46 65 106 126 123 129 114 303 303 326 32 226 170 188 200 200 196 194 194 211 254 300 329 339 343 347 349 347 347
60 57 51 44 31 9 32 25 25 20 30 70 98 93 77 32 30 328 345 343 321 164 182 185 193 197 199 196 210 228 250 290 323 335 337 336 337 337
74 76 73 70 57 36 39 26 21 17 21 32 58 60 45 33 18 330 7 338 333 18 353 189 166 183 195 205 212 221 227 243 277 308 316 321 323 325
82 97 113 98 87 72 55 41 31 31 25 17 34 39 30 23 4 343 354 350 326 316 345 287 160 180 188 185 195 203 214 225 244 276 296 305 311 316
48 47 64 68 40 25 8 264 245 239 251 21 21 14 16 17 359 339 335 319 288 274 274 278 211 187 187 167 183 199 210 222 237 261 285 296 303 306
58 55 66 56 32 9 348 3 26 154 222 208 13 351 11 3 342 313 304 307 297 293 4 296 296 189 154 161 192 204 214 225 235 251 273 290 299 304
74 53 60 69 35 11 360 6 18 12 334 251 260 272 280 280 282 317 325 339 341 340 4 351 337 332 203 194 200 207 220 229 236 243 257 277 297 308
97 90 66 54 32 19 6 7 13 358 342 321 278 262 253 253 237 228 284 326 340 339 354 7 351 343 326 270 227 194 217 233 235 239 247 261 284 304
80 85 73 38 20 4 347 346 347 316 303 297 286 269 255 245 214 208 221 268 318 312 319 4 331 331 319 292 267 225 208 207 207 228 236 245 255 274
40 60 71 0 341 328 323 324 324 315 291 313 354 10 351 328 290 253 229 240 238 238 249 256 267 287 299 304 288 269 255 229 208 209 206 212 232 246
17 359 320 293 307 297 277 297 314 316 341 357 355 346 324 296 289 286 271 255 262 258 237 223 225 256 277 274 277 283 284 267 236 223 190 191 201 204
347 305 278 273 280 294 296 275 264 325 343 319 324 324 318 320 324 324 325 317 307 303 284 252 236 231 255 271 272 286 285 280 286 268 232 226 208 191
335 305 280 271 251 254 310 327 337 14 356 339 336 332 337 339 332 327 328 325 326 320 318 312 287 254 246 256 283 305 316 319 311 301 291 266 223 197
337 313 321 342 357 6 359 355 18 36 1 332 328 335 338 330 328 326 334 336 325 316 312 311 330 343 340 351 284 281 304 304 302 297 301 300 267 205
298 289 340 11 9 5 1 1 11 11 332 315 324 343 343 334 333 328 338 341 330 326 317 307 333 3 347 330 288 231 237 280 298 303 300 293 277 223
256 308 21 21 22 12 7 2 350 348 352 346 346 349 342 334 329 329 331 335 324 314 307 307 326 342 291 279 279 263 214 229 262 288 303 307 329 74
3 19 29 26 17 360 348 343 327 324 340 332 330 334 331 328 327 325 323 326 313 302 313 311 291 265 250 265 286 279 226 215 223 225 266 298 302 273
10 5 15 22 357 328 330 338 345 348 352 348 349 347 337 329 326 324 320 318 314 318 319 307 302 294 282 283 290 290 284 254 230 236 245 236 232 250
23 352 327 342 14 2 9 7 5 359 5 5 357 345 332 323 316 314 315 318 322 329 331 326 325 318 311 308 305 305 325 314 257 212 246 240 238 248